Lid_Strength_Index
3 3 3 4 4 4 4 3 3 3 3 3 3 2 2 2 3 5 11 7 6 -0 0 8 9 10 10 11 10 9 13 14 13 13 11 7 8 6 4 6 5 4 5 4 2
3 3 3 4 4 4 4 4 3 3 3 3 3 2 2 2 6 9 5 0 -1 -2 8 10 10 10 12 12 11 11 14 12 10 11 10 8 8 7 7 7 7 5 4 3 3
3 3 3 3 4 4 4 4 4 4 3 3 3 2 2 3 9 9 -1 -1 -2 -2 9 9 10 11 10 12 12 12 14 12 10 9 9 8 7 6 7 9 6 6 5 4 4
4 4 4 4 4 4 4 4 4 4 3 3 2 2 2 6 14 6 -2 -2 -3 6 9 10 11 10 11 12 13 11 12 11 10 8 8 7 6 7 7 6 5 4 4 4 4
4 4 4 4 4 4 4 3 4 4 3 3 3 2 5 10 11 8 -2 -2 5 7 9 10 12 13 12 14 13 13 12 12 11 12 10 8 7 7 7 5 4 4 3 4 4
4 4 4 4 4 4 3 3 4 4 4 3 3 3 9 14 9 3 3 5 6 8 8 10 11 10 13 13 13 11 12 12 12 12 11 9 7 6 6 5 5 5 4 4 4
4 4 4 4 4 3 3 3 4 4 3 3 3 3 7 11 5 2 3 4 5 6 7 7 7 9 10 12 11 11 12 12 12 12 12 9 9 8 6 5 5 5 4 4 4
5 5 5 4 3 3 3 3 3 3 3 3 2 4 11 6 5 6 3 4 3 4 6 6 6 9 11 11 11 12 13 15 13 12 11 11 12 7 5 6 6 5 5 5 5
5 5 5 4 3 3 3 3 3 3 2 2 5 7 9 3 4 3 5 6 5 4 4 3 8 10 10 13 14 14 15 14 12 11 11 10 11 8 7 9 10 8 8 8 8
4 5 5 4 3 3 3 3 2 3 3 2 3 8 7 7 5 5 5 6 6 6 7 8 11 12 13 14 16 15 14 14 13 9 9 11 11 9 9 10 11 10 11 10 9
4 4 5 4 3 4 5 6 8 8 6 9 9 7 5 3 4 7 6 6 6 8 11 11 12 14 13 12 12 12 13 13 11 8 10 11 12 11 10 10 10 11 11 10 10
4 4 5 4 4 3 6 5 5 5 7 5 6 6 4 4 6 6 6 8 8 11 11 12 13 10 10 11 12 12 13 13 10 9 10 11 13 12 12 12 11 11 11 11 11
4 4 4 4 4 6 7 6 4 5 9 7 5 5 5 5 6 6 6 7 9 11 12 13 10 8 10 11 12 13 13 13 12 10 10 11 14 13 12 12 12 12 11 12 12
4 4 4 4 7 7 6 5 5 5 11 9 7 5 5 6 7 5 6 7 9 10 10 11 9 8 10 11 11 14 10 10 10 12 14 11 18 15 13 13 13 13 13 13 12
4 3 3 3 7 5 3 6 6 5 17 8 6 3 5 7 7 6 6 7 9 9 9 10 9 9 10 10 9 10 9 10 10 13 14 13 17 17 14 15 14 14 13 13 14
4 3 3 5 7 6 5 6 5 11 17 9 7 8 9 8 6 7 7 7 7 9 9 9 7 9 10 9 9 8 10 11 12 14 15 14 16 19 17 15 15 14 14 13 14
4 3 4 4 8 6 6 6 11 15 8 9 9 8 9 10 8 8 11 12 12 13 13 10 9 9 9 11 10 10 13 16 16 16 18 14 18 18 15 14 14 15 15 15 14
4 3 5 4 6 6 6 9 15 10 11 8 8 8 10 9 9 10 11 14 12 12 12 14 14 11 10 12 13 13 13 15 18 20 18 14 20 19 14 14 14 14 15 15 15
5 6 7 6 6 6 7 13 12 11 9 10 8 10 11 9 10 12 13 14 13 13 14 14 13 10 10 11 11 13 16 14 16 16 17 18 18 16 15 15 16 16 16 16 16
8 8 6 4 4 6 9 11 10 9 8 9 12 10 12 11 11 13 14 13 13 12 12 13 14 11 11 11 11 13 13 16 16 19 20 19 19 20 19 18 17 17 17 17 16
8 7 4 4 4 7 12 11 9 7 7 10 11 11 11 12 12 15 15 14 13 12 12 13 13 12 12 15 16 15 17 16 16 17 18 20 21 17 17 16 16 17 16 16 15
7 9 5 5 9 11 11 9 8 8 7 8 9 10 11 12 13 15 15 14 12 12 13 13 15 17 15 13 12 14 16 17 18 20 20 19 20 15 15 15 15 16 15 15 15
8 8 5 6 12 12 11 10 9 9 10 9 10 9 10 13 15 13 14 13 12 12 13 13 16 19 17 15 13 14 14 15 17 18 20 20 20 14 14 15 14 15 14 14 13
7 9 8 8 9 11 12 11 11 9 9 9 11 10 12 14 14 15 14 12 12 11 8 12 17 17 18 16 14 16 14 14 16 18 19 19 18 16 16 16 16 15 15 14 13
8 10 8 11 10 11 11 11 11 11 10 10 11 11 12 15 15 15 14 12 10 9 12 14 17 14 14 14 14 15 15 15 17 17 18 18 18 17 16 16 16 15 14 14 14
10 10 10 11 11 11 12 12 11 11 11 12 12 11 12 14 14 15 14 14 13 11 13 13 15 14 15 13 14 16 15 15 16 16 17 18 18 15 14 14 14 14 14 14 13
7 8 10 11 12 13 13 11 11 11 10 10 11 12 13 12 12 12 12 12 12 13 14 14 15 17 18 14 14 18 17 17 16 16 17 20 18 14 15 14 14 14 14 13 13